Location: Tucson
(32.2217°N, 110.9265°W)
Time: 02:01:13
(UTC-07:00)

Courier 1B Rocket - All Passes

Search period start: 21 October 2021 00:00
Search period end: 31 October 2021 00:00
Orbit: 920 x 1202 km, 28.2° (Epoch: 20 October)

Date Brightness Start Highest point End Pass type
(mag) Time Alt. Az. Time Alt. Az. Time Alt. Az.
21 Oct - 13:58:08 10° S 14:01:19 14° SSE 14:04:25 10° ESE daylight
21 Oct - 15:48:18 10° SW 15:54:10 36° SSE 15:59:48 10° E daylight
21 Oct - 17:41:01 10° WSW 17:47:13 59° S 17:53:19 10° E daylight
21 Oct - 19:34:18 10° W 19:40:22 55° S 19:46:32 10° ESE visible
21 Oct - 21:27:59 10° W 21:33:22 30° SSW 21:38:57 10° SE visible
21 Oct - 23:25:24 10° SW 23:26:11 10° SSW 23:26:58 10° SSW night (unlit)
22 Oct - 14:47:44 10° SW 14:53:16 28° SSE 14:58:35 10° ESE daylight
22 Oct - 16:40:01 10° WSW 16:46:17 53° S 16:52:19 10° E daylight
22 Oct - 18:33:16 10° W 18:39:26 60° S 18:45:35 10° ESE visible
22 Oct - 20:26:48 10° W 20:32:30 38° SSW 20:38:20 10° SE visible
22 Oct - 22:21:45 10° WSW 22:25:19 16° SSW 22:28:59 10° S night (unlit)
23 Oct - 13:47:25 10° SSW 13:52:22 21° SSE 13:57:06 10° ESE daylight
23 Oct - 15:39:04 10° WSW 15:45:20 45° SSE 15:51:19 10° E daylight
23 Oct - 17:32:12 10° WSW 17:38:29 62° S 17:44:38 10° E daylight
23 Oct - 19:25:40 10° W 19:31:37 47° SSW 19:37:36 10° ESE visible
23 Oct - 21:19:52 10° WSW 21:24:29 22° SSW 21:29:13 10° SSE visible
24 Oct - 12:47:38 10° S 12:51:27 15° SSE 12:55:08 10° ESE daylight
24 Oct - 14:38:12 10° SW 14:44:24 37° SSE 14:50:15 10° E daylight
24 Oct - 16:31:06 10° WSW 16:37:32 60° S 16:43:41 10° E daylight
24 Oct - 18:24:33 10° W 18:30:43 55° S 18:36:46 10° ESE visible
24 Oct - 20:18:23 10° W 20:23:39 29° SSW 20:29:00 10° SE visible
25 Oct - 11:50:03 10° SSE 11:50:29 10° SSE 11:50:56 10° SE daylight
25 Oct - 13:37:30 10° SW 13:43:27 30° SSE 13:49:04 10° E daylight
25 Oct - 15:30:00 10° WSW 15:36:33 54° S 15:42:44 10° E daylight
25 Oct - 17:23:24 10° W 17:29:46 60° S 17:35:54 10° ESE daylight
25 Oct - 19:17:05 10° W 19:22:49 38° SSW 19:28:31 10° SE visible
25 Oct - 21:12:19 10° WSW 21:15:34 15° SSW 21:18:50 10° S visible
26 Oct - 12:37:04 10° SSW 12:42:29 23° SSE 12:47:37 10° ESE daylight
26 Oct - 14:28:56 10° WSW 14:35:33 47° SSE 14:41:45 10° E daylight
26 Oct - 16:22:13 10° W 16:28:48 62° S 16:35:01 10° E daylight
26 Oct - 18:15:52 10° W 18:21:57 47° SSW 18:27:52 10° ESE visible
26 Oct - 20:10:14 10° WSW 20:14:46 21° SSW 20:19:18 10° SSE visible
27 Oct - 11:37:06 10° S 11:41:30 17° SSE 11:45:44 10° ESE daylight
27 Oct - 13:27:58 10° SW 13:34:33 39° SSE 13:40:42 10° E daylight
27 Oct - 15:21:01 10° WSW 15:27:46 61° S 15:34:07 10° E daylight
27 Oct - 17:14:38 10° W 17:21:01 55° S 17:27:07 10° ESE daylight
27 Oct - 19:08:38 10° W 19:13:58 29° SSW 19:19:11 10° SE visible
28 Oct - 10:38:20 10° SSE 10:40:30 11° SSE 10:42:37 10° SE daylight
28 Oct - 12:27:11 10° SW 12:33:31 32° SSE 12:39:30 10° E daylight
28 Oct - 14:19:49 10° WSW 14:26:44 56° S 14:33:10 10° E daylight
28 Oct - 16:13:23 10° W 16:20:03 61° S 16:26:18 10° ESE daylight
28 Oct - 18:07:14 10° W 18:13:08 37° SSW 18:18:49 10° SE visible
28 Oct - 20:02:43 10° WSW 20:05:49 14° SSW 20:08:54 10° S visible
29 Oct - 11:26:39 10° SSW 11:32:29 25° SSE 11:38:03 10° ESE daylight
29 Oct - 13:18:40 10° WSW 13:25:40 49° SSE 13:32:11 10° E daylight
29 Oct - 15:12:06 10° W 15:19:01 63° S 15:25:26 10° E daylight
29 Oct - 17:05:54 10° W 17:12:14 47° SSW 17:18:14 10° ESE daylight
29 Oct - 19:00:27 10° WSW 19:05:02 21° SSW 19:09:32 10° SSE visible
30 Oct - 10:26:35 10° SSW 10:31:27 18° SSE 10:36:10 10° ESE daylight
30 Oct - 12:17:39 10° SW 12:24:35 41° SSE 12:31:05 10° E daylight
30 Oct - 14:10:49 10° WSW 14:17:56 62° S 14:24:32 10° E daylight
30 Oct - 16:04:34 10° W 16:11:16 56° S 16:17:32 10° ESE daylight
30 Oct - 17:58:43 10° W 18:04:14 29° SSW 18:09:32 10° SE visible
